Linden, NJ

1:01 AM EDT on August 24, 2017 (GMT -0400)
Linden

Weather History for KLDJ - May, 2013

Change the Weather History Date:

Thursday, May 16, 2013

  Actual Average (KEWR) Record (KEWR)
Temperature  
Mean Temperature 72 °F -  
Max Temperature 83 °F 70 °F 92 °F (1951)
Min Temperature 61 °F 53 °F 40 °F (1937)
Cooling Degree Days 7    
Growing Degree Days 22 (Base 50)    
Moisture  
Dew Point 55 °F    
Average Humidity 56    
Maximum Humidity 85    
Minimum Humidity 31    
Precipitation  
Precipitation 0.00 in - - ()
Sea Level Pressure  
Sea Level Pressure 29.77 in    
Wind  
Wind Speed 4 mph (West)    
Max Wind Speed 12 mph    
Max Gust Speed 22 mph    
Visibility 10 miles    
Events Rain    
Averages and records for this station are not official NWS values.
T = Trace of Precipitation, MM = Missing Value Source: NWS Daily Summary

Daily Weather History Graph

Daily Weather History Graph

Search for Another Location

Airport or City:

Trip Planner

Search our weather history database for the weather conditions in past years. The results will help you decide how hot, cold, wet, or windy it might be!

Date:

Astronomy

May. 16, 2013 Rise Set
Actual Time 5:39 AM EDT 8:08 PM EDT
Civil Twilight 5:07 AM EDT 8:39 PM EDT
Nautical Twilight 4:29 AM EDT 9:18 PM EDT
Astronomical Twilight 3:46 AM EDT 10:01 PM EDT
Moon 11:10 AM EDT (5/16) 12:27 AM EDT (5/16)
Length of Visible Light 15h 31m
Length of Day
14h 29m
Waxing Crescent, 35% of the Moon is Illuminated
May 16
Waxing Crescent
May 18
First Quarter
May 25
Full
May 31
Last Quarter
Jun 8
New

Hourly Weather History & Observations

Time (EDT) Temp. Heat Index Dew Point Humidity Pressure Visibility Wind Dir Wind Speed Gust Speed Precip Events Conditions
12:15 AM 67.8 °F - 57.9 °F 71% 29.73 in 10.0 mi WNW 3.5 mph - N/A   Scattered Clouds
12:35 AM 68.0 °F - 58.1 °F 71% 29.73 in 10.0 mi West 4.6 mph - N/A   Clear
12:55 AM 67.5 °F - 57.9 °F 71% 29.72 in 10.0 mi Calm Calm - N/A   Clear
1:15 AM 66.7 °F - 57.6 °F 72% 29.72 in 10.0 mi Calm Calm - N/A   Clear
1:35 AM 65.8 °F - 58.1 °F 76% 29.72 in 10.0 mi WSW 3.5 mph - N/A   Clear
1:55 AM 65.1 °F - 57.6 °F 76% 29.72 in 10.0 mi Calm Calm - N/A   Clear
2:15 AM 65.3 °F - 57.9 °F 77% 29.73 in 10.0 mi Calm Calm - N/A   Clear
2:35 AM 64.8 °F - 58.1 °F 79% 29.72 in 10.0 mi Calm Calm - N/A   Clear
2:55 AM 63.7 °F - 57.6 °F 80% 29.72 in 10.0 mi WNW 4.6 mph - N/A   Clear
3:15 AM 63.7 °F - 57.6 °F 80% 29.73 in 10.0 mi WNW 3.5 mph - N/A   Clear
3:35 AM 62.8 °F - 57.6 °F 83% 29.72 in 10.0 mi NW 3.5 mph - N/A   Clear
3:55 AM 63.5 °F - 57.6 °F 81% 29.72 in 10.0 mi NNW 3.5 mph - N/A   Clear
4:15 AM 63.5 °F - 57.6 °F 81% 29.72 in 10.0 mi Calm Calm - N/A   Clear
4:35 AM 63.0 °F - 57.6 °F 82% 29.72 in 10.0 mi Calm Calm - N/A   Clear
4:55 AM 61.9 °F - 57.2 °F 85% 29.73 in 10.0 mi Calm Calm - N/A   Clear
5:15 AM 63.3 °F - 57.4 °F 81% 29.73 in 10.0 mi Calm Calm - N/A   Clear
6:15 AM 62.8 °F - 56.8 °F 81% 29.75 in 10.0 mi West 3.5 mph - N/A   Clear
6:35 AM 63.5 °F - 56.3 °F 77% 29.76 in 10.0 mi West 3.5 mph - N/A   Clear
6:55 AM 64.2 °F - 56.3 °F 75% 29.77 in 10.0 mi WNW 4.6 mph - N/A   Clear
7:15 AM 64.4 °F - 56.7 °F 76% 29.78 in 10.0 mi Calm Calm - N/A   Clear
7:35 AM 65.3 °F - 56.1 °F 72% 29.78 in 10.0 mi Calm Calm - N/A   Clear
7:55 AM 65.3 °F - 56.7 °F 74% 29.79 in 10.0 mi WNW 3.5 mph - N/A   Clear
8:15 AM 65.7 °F - 56.7 °F 73% 29.79 in 10.0 mi WNW 3.5 mph - N/A   Clear
8:35 AM 66.2 °F - 55.9 °F 69% 29.80 in 10.0 mi Calm Calm - N/A   Scattered Clouds
8:55 AM 67.5 °F - 54.9 °F 64% 29.81 in 10.0 mi Calm Calm - N/A   Scattered Clouds
9:15 AM 67.6 °F - 55.9 °F 66% 29.83 in 10.0 mi Calm Calm - N/A   Mostly Cloudy
9:35 AM 67.6 °F - 55.4 °F 65% 29.83 in 10.0 mi WSW 3.5 mph - N/A   Mostly Cloudy
9:55 AM 67.6 °F - 54.1 °F 62% 29.80 in 10.0 mi Calm Calm - N/A   Mostly Cloudy
10:15 AM 67.3 °F - 54.5 °F 63% 29.79 in 10.0 mi Calm Calm - N/A   Mostly Cloudy
10:35 AM 68.0 °F - 54.3 °F 62% 29.82 in 10.0 mi WSW 3.5 mph - N/A Rain Light Rain
10:55 AM 68.7 °F - 52.7 °F 57% 29.81 in 10.0 mi SSW 3.5 mph - N/A   Scattered Clouds
11:15 AM 70.0 °F - 51.8 °F 52% 29.80 in 10.0 mi Calm Calm - N/A   Scattered Clouds
11:35 AM 72.7 °F - 50.2 °F 45% 29.81 in 10.0 mi South 4.6 mph - N/A   Clear
11:55 AM 74.8 °F - 49.5 °F 41% 29.80 in 10.0 mi SW 4.6 mph - N/A   Clear
12:15 PM 75.2 °F - 46.9 °F 37% 29.79 in 10.0 mi West 6.9 mph - N/A   Clear
12:35 PM 76.1 °F - 48.6 °F 38% 29.79 in 10.0 mi West 8.1 mph - N/A   Clear
12:55 PM 77.0 °F - 48.2 °F 36% 29.79 in 10.0 mi WSW 6.9 mph - N/A   Clear
1:15 PM 78.4 °F - 48.6 °F 35% 29.79 in 10.0 mi SW 4.6 mph - N/A   Clear
1:35 PM 78.1 °F - 46.6 °F 33% 29.78 in 10.0 mi SW 5.8 mph - N/A   Clear
1:55 PM 78.4 °F - 47.5 °F 34% 29.77 in 10.0 mi West 9.2 mph - N/A   Clear
2:15 PM 79.3 °F - 45.9 °F 31% 29.77 in 10.0 mi WSW 6.9 mph - N/A   Clear
2:35 PM 79.3 °F - 46.2 °F 31% 29.77 in 10.0 mi WSW 9.2 mph 17.3 mph N/A   Clear
2:55 PM 79.5 °F - 47.8 °F 33% 29.77 in 10.0 mi WSW 6.9 mph 16.1 mph N/A   Clear
3:15 PM 80.6 °F - 50.5 °F 35% 29.76 in 10.0 mi WSW 6.9 mph - N/A   Clear
3:35 PM 81.0 °F - 52.0 °F 36% 29.75 in 10.0 mi West 10.4 mph 17.3 mph N/A   Clear
3:55 PM 81.1 °F 80.9 °F 55.2 °F 41% 29.75 in 10.0 mi WSW 9.2 mph - N/A   Clear
4:15 PM 81.0 °F 81.0 °F 57.4 °F 44% 29.74 in 10.0 mi WSW 8.1 mph 18.4 mph N/A   Scattered Clouds
4:35 PM 81.9 °F 81.6 °F 56.8 °F 42% 29.74 in 10.0 mi West 11.5 mph 16.1 mph N/A   Clear
4:55 PM 81.5 °F 81.1 °F 55.6 °F 41% 29.73 in 10.0 mi West 11.5 mph 21.9 mph N/A   Clear
5:15 PM 82.2 °F 81.6 °F 55.9 °F 40% 29.73 in 10.0 mi West 8.1 mph - N/A   Clear
5:35 PM 82.4 °F 81.9 °F 56.7 °F 41% 29.73 in 10.0 mi WSW 6.9 mph - N/A   Clear
5:55 PM 82.8 °F 82.0 °F 55.6 °F 39% 29.72 in 10.0 mi SW 5.8 mph - N/A   Clear
6:15 PM 83.1 °F 82.4 °F 56.3 °F 40% 29.72 in 10.0 mi West 9.2 mph - N/A   Scattered Clouds
6:35 PM 82.8 °F 82.4 °F 57.4 °F 42% 29.73 in 10.0 mi West 10.4 mph - N/A   Scattered Clouds
6:55 PM 82.4 °F 82.0 °F 57.4 °F 42% 29.73 in 10.0 mi WSW 6.9 mph - N/A   Clear
7:15 PM 81.9 °F 81.8 °F 58.1 °F 44% 29.74 in 10.0 mi WSW 8.1 mph - N/A   Clear
7:35 PM 81.5 °F 81.7 °F 58.6 °F 46% 29.75 in 10.0 mi WSW 6.9 mph - N/A   Clear
7:55 PM 80.8 °F 81.2 °F 58.8 °F 47% 29.75 in 10.0 mi WSW 4.6 mph - N/A   Clear
8:15 PM 80.1 °F 80.7 °F 59.0 °F 48% 29.75 in 10.0 mi WSW 4.6 mph - N/A   Clear
8:35 PM 79.3 °F - 59.0 °F 50% 29.76 in 10.0 mi WSW 5.8 mph - N/A   Clear
8:55 PM 78.8 °F - 58.8 °F 50% 29.77 in 10.0 mi WSW 5.8 mph - N/A   Clear
9:15 PM 77.9 °F - 58.5 °F 51% 29.78 in 10.0 mi WSW 4.6 mph - N/A   Clear
9:35 PM 74.8 °F - 59.4 °F 58% 29.79 in 10.0 mi WNW 5.8 mph - N/A   Scattered Clouds
9:55 PM 73.4 °F - 59.2 °F 61% 29.80 in 10.0 mi NW 4.6 mph - N/A   Scattered Clouds
10:15 PM 73.4 °F - 58.6 °F 60% 29.81 in 10.0 mi West 3.5 mph - N/A   Clear
10:35 PM 73.4 °F - 54.5 °F 51% 29.81 in 10.0 mi WNW 4.6 mph - N/A   Clear
10:55 PM 73.0 °F - 50.0 °F 44% 29.82 in 10.0 mi West 3.5 mph - N/A   Clear
11:15 PM 72.7 °F - 47.5 °F 41% 29.82 in 10.0 mi West 3.5 mph - N/A   Clear
11:35 PM 72.5 °F - 44.6 °F 37% 29.83 in 10.0 mi West 3.5 mph - N/A   Clear
11:55 PM 71.2 °F - 44.4 °F 38% 29.83 in 10.0 mi West 3.5 mph - N/A   Clear